[[{"header":{"parameterUnit":"m.s-1","parameterCategory":2,"la1":30.2991,"la2":30.254,"lo1":-89.0895,"lo2":-89.0444,"dy":0.0017,"dx":0.0017,"nx":28,"ny":28,"refTime":"2024-04-14T21:00:00:Z","depth":"0","parameterNumber":2,"parameterNumberName":"U-component_of_CURRENTS"},"data":[0,0,0,0,0,0,0,0,0,0,0,0,0,0,0,0,0,0,0,0,0,0,0,0,0,0,0,0,0,0,0,0,0,0,0,0,0,0,0,0,0,0,0,0,0,0,0,0,0,0,0,0,0,0,0,0,0,0,0.3106,0.3107,0,0.3171,0.3172,0.3172,0.3172,0.3171,0.3171,0.317,0.3168,0.3168,0.3169,0,0,0,0,0,0,0,0,0,0,0,0,0,0.2951,0.2954,0.3106,0.3107,0.3108,0.3171,0.3172,0.3172,0.3172,0.3171,0.317,0.317,0.3167,0.3168,0.3169,0,0,0,0,0,0,0,0,0,0,0,0,0,0.3015,0.2954,0.3106,0.3117,0.3119,0.3171,0.3172,0.3173,0.3172,0.3171,0.317,0.3169,0.3167,0.3168,0.3169,0.3192,0,0,0.3171,0.3171,0,0,0,0,0,0,0,0,0.3011,0.302,0.3114,0.3116,0.3119,0.3165,0.3117,0.3177,0.3172,0.3149,0.317,0.3169,0.3163,0.3164,0.3175,0.3192,0.3192,0.3171,0.3172,0.3172,0.3172,0,0,0,0,0,0,0,0.3007,0.3017,0.3129,0.3116,0.3118,0.3109,0.3117,0.3128,0.3157,0.3151,0.3152,0.3164,0.3163,0.3175,0.3175,0.3192,0.3171,0.3172,0.3172,0.3173,0.3244,0.3246,0,0,0,0,0,0,0.3007,0.3014,0.3127,0.3131,0.3065,0.3113,0.3122,0.3149,0.3158,0.316,0.3164,0.3164,0.3174,0.3174,0.3175,0.3215,0.3172,0.3173,0.3173,0.3243,0.3245,0.3246,0,0,0,0,0,0,0.3004,0.3018,0.3124,0.3074,0.3088,0.3117,0.3147,0.3151,0.3167,0.317,0.317,0.3177,0.3173,0.3174,0.3202,0.3214,0.3173,0.3174,0.3241,0.3243,0.3245,0.3287,0,0,0,0,0,0,0.3,0.3016,0.3034,0.3076,0.3091,0.3161,0.3148,0.3153,0.3176,0.3176,0.3181,0.318,0.3172,0.3202,0.3203,0.3214,0.3174,0.3239,0.3242,0.3245,0.3283,0.329,0.3296,0,0,0,0,0,0.2994,0.302,0.3034,0.3048,0.3115,0.3162,0.3169,0.3184,0.3178,0.3193,0.3203,0.318,0.3219,0.3204,0.3205,0.3217,0.3238,0.3241,0.3245,0.3281,0.3289,0.3295,0,0,0,0,0,0,0.2961,0.3024,0.304,0.3085,0.3124,0.3163,0.3178,0.3191,0.3213,0.321,0.3205,0.3206,0.3232,0.3227,0.321,0.3247,0.3222,0.3226,0.3249,0.3256,0.3262,0.3218,0.3175,0,0,0,0,0,0.2965,0.3,0.3057,0.3091,0.3113,0.3148,0.3168,0.3184,0.3211,0.3219,0.3224,0.3232,0.3248,0.3254,0.3265,0.329,0.3323,0.3298,0.3304,0.3309,0.3275,0.3335,0.3343,0.3257,0.3257,0.3257,0,0,0.296,0.3,0.3019,0.3086,0.3115,0.3148,0.3157,0.3195,0.3217,0.3215,0.3241,0.3255,0.3262,0.329,0.33,0.3285,0.3372,0.3313,0.3317,0.328,0.3339,0.3347,0.3355,0.3259,0.3259,0.3258,0,0,0.2965,0.3007,0.3037,0.3072,0.3127,0.3153,0.3167,0.3215,0.3231,0.3266,0.3272,0.3291,0.3314,0.3322,0.3328,0.3374,0.3403,0.3387,0.3377,0.3437,0.3444,0.345,0.3593,0.3611,0.3387,0.3387,0.3387,0,0.2955,0.3005,0.305,0.3085,0.3108,0.3155,0.3182,0.3214,0.3263,0.3275,0.3273,0.3315,0.332,0.3352,0.3363,0.3383,0.3452,0.3349,0.3444,0.345,0.3456,0.36,0.3619,0.339,0.3389,0.3389,0.3389,0,0.2984,0.3019,0.3038,0.3097,0.3127,0.3162,0.3212,0.3244,0.3263,0.3286,0.3322,0.3344,0.3365,0.3377,0.3375,0.3422,0.3478,0.345,0.3422,0.3467,0.3617,0.3637,0.3393,0.3392,0.3392,0.3391,0,0,0.2961,0.3044,0.3043,0.3069,0.3135,0.3163,0.3205,0.3253,0.3281,0.3312,0.3344,0.3361,0.3376,0.3382,0.3405,0.3433,0.3563,0.3452,0.3454,0.3589,0.3774,0.3822,0.3849,0.3557,0.3559,0.356,0.3897,0,0.2965,0.3018,0.3057,0.3095,0.3128,0.3176,0.3209,0.3254,0.3295,0.3343,0.3363,0.3404,0.3385,0.3414,0.344,0.3529,0.3601,0.3478,0.3712,0.372,0.375,0.3865,0.3692,0.3975,0.3917,0.392,0.3922,0,0.2966,0.3006,0.3043,0.3102,0.3119,0.3148,0.3206,0.3247,0.3318,0.3351,0.339,0.3429,0.3499,0.3463,0.3637,0.357,0.3665,0.3723,0.3738,0.3758,0.3799,0.3903,0.4013,0.3845,0.3952,0.395,0.3948,0,0.2915,0.2983,0.301,0.3032,0.3113,0.3134,0.3173,0.324,0.3295,0.3371,0.3429,0.3499,0.3586,0.3665,0.3815,0.3739,0.4024,0.3948,0.4093,0.4103,0.3982,0.3976,0.3931,0.4057,0.4056,0.4055,0.4054,0,0.2897,0.2916,0.2993,0.3012,0.3047,0.3106,0.3153,0.3206,0.3305,0.3367,0.344,0.3532,0.3632,0.381,0.3885,0.4103,0.4115,0.4118,0.418,0.4005,0.3997,0.3862,0.3765,0.4068,0.4065,0.4063,0.4061,0,0.2838,0.2889,0.2928,0.3005,0.3029,0.3052,0.3155,0.3201,0.3303,0.34,0.3439,0.3626,0.3844,0.4004,0.4203,0.4246,0.429,0.4477,0.4316,0.4348,0.4237,0.415,0.4106,0.3994,0.4663,0.4666,0.4668,0,0.2811,0.2829,0.2905,0.2937,0.2976,0.3028,0.3069,0.3176,0.3243,0.3451,0.3509,0.3769,0.3936,0.4323,0.4438,0.4664,0.4446,0.4621,0.4385,0.4231,0.4181,0.4007,0.39,0.4302,0.4301,0.43,0.43,0,0.2774,0.2802,0.2847,0.2921,0.2968,0.2998,0.3076,0.3138,0.3266,0.339,0.3598,0.3761,0.4116,0.4274,0.4582,0.4657,0.4349,0.4616,0.4457,0.3895,0.3697,0.3619,0.4151,0.4295,0.4295,0.4295,0.4296,0.4296,0.2753,0.2779,0.2865,0.2917,0.2963,0.2992,0.2984,0.3097,0.3218,0.3361,0.3577,0.3775,0.403,0.4423,0.4479,0.442,0.4381,0.4253,0.4185,0.4044,0.3811,0.4385,0.4576,0.4578,0.458,0.4581,0.4583,0,0.2766,0.2816,0.2865,0.2927,0.2931,0.2962,0.3004,0.2977,0.307,0.327,0.344,0.373,0.3895,0.4041,0.4123,0.3996,0.3785,0.3856,0.3488,0.3419,0.394,0.3791,0.3814,0.3814,0.3814,0.3814,0.3814,0.3815,0.2792,0.2856,0.2878,0.2895,0.29,0.2847,0.2827,0.2815,0.291,0.306,0.3212,0.3402,0.3647,0.376,0.3642,0.3546,0.3216,0.3122,0.3107,0.3367,0.3394,0.3419,0.3252,0.3162,0.3161,0.2428,0.2422,0.2418]},{"header":{"parameterUnit":"m.s-1","parameterCategory":2,"la1":30.2991,"la2":30.254,"lo1":-89.0895,"lo2":-89.0444,"dy":0.0017,"dx":0.0017,"nx":28,"ny":28,"refTime":"2024-04-14T21:00:00:Z","depth":"0","parameterNumber":3,"parameterNumberName":"V-component_of_CURRENTS"},"data":[0,0,0,0,0,0,0,0,0,0,0,0,0,0,0,0,0,0,0,0,0,0,0,0,0,0,0,0,0,0,0,0,0,0,0,0,0,0,0,0,0,0,0,0,0,0,0,0,0,0,0,0,0,0,0,0,0,0,-0.0327,-0.0328,0,-0.0418,-0.0419,-0.042,-0.0432,-0.0431,-0.043,-0.0429,-0.0552,-0.0556,-0.056,0,0,0,0,0,0,0,0,0,0,0,0,0,-0.0237,-0.0238,-0.0327,-0.0328,-0.0329,-0.0418,-0.0419,-0.042,-0.0432,-0.0431,-0.043,-0.0429,-0.0551,-0.0556,-0.056,0,0,0,0,0,0,0,0,0,0,0,0,0,-0.0296,-0.0238,-0.0327,-0.0346,-0.0349,-0.0417,-0.0419,-0.042,-0.0432,-0.0431,-0.043,-0.0429,-0.0549,-0.0555,-0.0561,-0.0624,0,0,-0.058,-0.0582,0,0,0,0,0,0,0,0,-0.0293,-0.0299,-0.0342,-0.0345,-0.0348,-0.0413,-0.0432,-0.049,-0.0433,-0.04,-0.0429,-0.0428,-0.051,-0.0519,-0.0538,-0.0629,-0.0635,-0.058,-0.0584,-0.0586,-0.0588,0,0,0,0,0,0,0,-0.0289,-0.0296,-0.0363,-0.0344,-0.0347,-0.0375,-0.0382,-0.0443,-0.0461,-0.0403,-0.0404,-0.0415,-0.0511,-0.0532,-0.0541,-0.0636,-0.058,-0.0585,-0.0589,-0.0592,-0.0762,-0.0763,0,0,0,0,0,0,-0.0276,-0.0292,-0.036,-0.0365,-0.0317,-0.0378,-0.0385,-0.0393,-0.046,-0.0469,-0.0416,-0.0415,-0.0522,-0.0534,-0.0545,-0.0575,-0.0586,-0.0592,-0.0596,-0.0761,-0.0762,-0.0763,0,0,0,0,0,0,-0.0273,-0.0281,-0.0356,-0.0331,-0.0343,-0.038,-0.0389,-0.0395,-0.0416,-0.047,-0.0479,-0.043,-0.0522,-0.0537,-0.0602,-0.0581,-0.0595,-0.06,-0.076,-0.0761,-0.0762,-0.0666,0,0,0,0,0,0,-0.027,-0.0279,-0.0285,-0.033,-0.0344,-0.0398,-0.0391,-0.0398,-0.0425,-0.0425,-0.0486,-0.0495,-0.0522,-0.0593,-0.0608,-0.059,-0.0605,-0.0759,-0.076,-0.0762,-0.0668,-0.0663,-0.066,0,0,0,0,0,-0.0267,-0.0277,-0.0284,-0.0293,-0.0348,-0.0399,-0.041,-0.0432,-0.0427,-0.0444,-0.0482,-0.0493,-0.0613,-0.06,-0.0617,-0.06,-0.0758,-0.076,-0.0762,-0.0669,-0.0664,-0.066,0,0,0,0,0,0,-0.0241,-0.0281,-0.0289,-0.0311,-0.0353,-0.0401,-0.0421,-0.0436,-0.0481,-0.0479,-0.052,-0.0534,-0.058,-0.0621,-0.0604,-0.0657,-0.0683,-0.0688,-0.0606,-0.0602,-0.0598,-0.055,-0.061,0,0,0,0,0,-0.0239,-0.0256,-0.0302,-0.0321,-0.034,-0.0382,-0.0406,-0.0423,-0.0466,-0.0483,-0.0521,-0.0565,-0.0605,-0.0627,-0.0679,-0.0721,-0.0716,-0.072,-0.0716,-0.0712,-0.0688,-0.0691,-0.0683,-0.0769,-0.0769,-0.0769,0,0,-0.0235,-0.0259,-0.027,-0.0317,-0.0349,-0.0364,-0.0393,-0.0431,-0.043,-0.0493,-0.0512,-0.0564,-0.0619,-0.0651,-0.0674,-0.0679,-0.0681,-0.0714,-0.071,-0.0688,-0.0692,-0.0683,-0.0675,-0.0771,-0.077,-0.077,0,0,-0.0228,-0.0258,-0.0265,-0.0295,-0.0341,-0.0365,-0.0374,-0.0425,-0.0436,-0.0478,-0.0506,-0.0544,-0.0621,-0.0634,-0.0654,-0.0669,-0.0668,-0.0692,-0.0621,-0.0625,-0.0616,-0.0609,-0.0556,-0.0545,-0.068,-0.0679,-0.0679,0,-0.0215,-0.0226,-0.0278,-0.0288,-0.0296,-0.0357,-0.0354,-0.0383,-0.0444,-0.0447,-0.0472,-0.0548,-0.0599,-0.0605,-0.0602,-0.0652,-0.064,-0.0625,-0.0613,-0.0606,-0.06,-0.0549,-0.0537,-0.0675,-0.0676,-0.0676,-0.0676,0,-0.0212,-0.0214,-0.0225,-0.0242,-0.0265,-0.0282,-0.0319,-0.0341,-0.0362,-0.0384,-0.0413,-0.048,-0.0511,-0.0537,-0.0571,-0.0553,-0.0552,-0.061,-0.0609,-0.0584,-0.0533,-0.0523,-0.0669,-0.067,-0.0672,-0.0673,0,0,-0.0175,-0.0209,-0.0206,-0.0193,-0.0236,-0.0249,-0.0253,-0.0268,-0.0246,-0.0313,-0.0278,-0.0357,-0.0387,-0.0412,-0.046,-0.0462,-0.0404,-0.0505,-0.0508,-0.0421,-0.0362,-0.0297,-0.028,-0.046,-0.0459,-0.0458,-0.0329,0,-0.0142,-0.013,-0.0159,-0.0133,-0.0124,-0.0166,-0.0156,-0.0179,-0.02,-0.019,-0.0248,-0.0249,-0.0341,-0.0335,-0.0359,-0.0391,-0.0379,-0.043,-0.0427,-0.0425,-0.0345,-0.0268,-0.0274,-0.0155,-0.0319,-0.0317,-0.0316,0,-0.0106,-0.0102,-0.0068,-0.0052,-0.0051,-0.0042,-0.0019,-0.0022,-0.0035,-0.0045,-0.0066,-0.0111,-0.0109,-0.02,-0.022,-0.0247,-0.0291,-0.0324,-0.0322,-0.0285,-0.0341,-0.0218,-0.0131,-0.0376,-0.0301,-0.0302,-0.0303,0,-0.0027,-0.0022,0.0017,0.0016,0.0011,0.0033,0.0036,0.0029,0.0066,0.0067,0.0119,0.0055,0.0097,-0.0002,-0.0062,-0.0139,-0.0063,-0.0187,-0.0166,-0.016,-0.0174,-0.0171,-0.0296,-0.0202,-0.0203,-0.0203,-0.0203,0,0.0038,0.0072,0.006,0.0081,0.0137,0.0111,0.0182,0.0172,0.0214,0.0312,0.0213,0.0318,0.0149,0.0163,0.003,0.0021,0.0013,-0.0106,-0.0116,-0.0138,-0.0134,-0.0358,-0.0492,-0.0198,-0.0199,-0.02,-0.0201,0,0.0124,0.0115,0.016,0.0167,0.0179,0.0223,0.0287,0.0347,0.0376,0.0518,0.0545,0.0563,0.061,0.0463,0.0375,0.0211,0.0041,0.0124,0.015,0.014,-0.0118,-0.0244,-0.0279,-0.0366,0.0153,0.0156,0.0158,0,0.0171,0.0199,0.0229,0.0273,0.0283,0.0344,0.0399,0.0424,0.0522,0.0704,0.0811,0.0901,0.1025,0.0936,0.0661,0.0487,0.0224,0.0318,0.0139,-0.0082,-0.0232,-0.0322,-0.0403,0.0169,0.0171,0.0173,0.0174,0,0.0252,0.026,0.0293,0.0385,0.0452,0.0537,0.0638,0.075,0.0848,0.1023,0.1302,0.143,0.1352,0.1218,0.0938,0.074,0.0153,0.0347,0.0083,-0.023,-0.0302,-0.0406,0.0064,0.0189,0.0187,0.0186,0.0186,0.0185,0.0317,0.0363,0.0421,0.0518,0.0605,0.0772,0.0894,0.1061,0.1303,0.162,0.1689,0.195,0.1618,0.1264,0.0961,0.0327,0.0319,0.0074,-0.0049,-0.0111,-0.0236,0.0316,0.0438,0.0438,0.0438,0.0438,0.0438,0,0.0421,0.0476,0.056,0.07,0.0844,0.0863,0.1086,0.1258,0.1612,0.1911,0.2186,0.2202,0.1775,0.1237,0.0415,-0.0035,-0.025,-0.0294,-0.0504,-0.0564,-0.0107,-0.0156,-0.0116,-0.0116,-0.0116,-0.0115,-0.0115,-0.0115,0.0485,0.0595,0.0643,0.0901,0.1014,0.1239,0.1394,0.1669,0.1918,0.2347,0.2545,0.2657,0.2197,0.0709,-0.0342,-0.0573,-0.0912,-0.0906,-0.1069,-0.0881,-0.086,-0.0841,-0.0924,-0.1045,-0.1046,-0.151,-0.1516,-0.1519]}],[{"header":{"parameterUnit":"m.s-1","parameterCategory":2,"la1":30.2991,"la2":30.254,"lo1":-89.0895,"lo2":-89.0444,"dy":0.0017,"dx":0.0017,"nx":28,"ny":28,"refTime":"2024-04-14T21:00:00:Z","depth":"2","parameterNumber":2,"parameterNumberName":"U-component_of_CURRENTS"},"data":[0,0,0,0,0,0,0,0,0,0,0,0,0,0,0,0,0,0,0,0,0,0,0,0,0,0,0,0,0,0,0,0,0,0,0,0,0,0,0,0,0,0,0,0,0,0,0,0,0,0,0,0,0,0,0,0,0,0,0.2333,0.2334,0,0.2444,0.2445,0.2446,0.2449,0.2448,0.2447,0.2446,0.2486,0.2488,0.249,0,0,0,0,0,0,0,0,0,0,0,0,0,0.2237,0.2237,0.2333,0.2335,0.2336,0.2444,0.2445,0.2446,0.2449,0.2448,0.2447,0.2446,0.2485,0.2488,0.249,0,0,0,0,0,0,0,0,0,0,0,0,0,0.2302,0.2237,0.2333,0.2354,0.2357,0.2443,0.2445,0.2446,0.245,0.2448,0.2447,0.2445,0.2485,0.2488,0.249,0.2537,0,0,0.2499,0.2501,0,0,0,0,0,0,0,0,0.2298,0.2305,0.2349,0.2353,0.2357,0.2435,0.2426,0.2475,0.245,0.241,0.2446,0.2445,0.2466,0.2471,0.249,0.2539,0.2541,0.25,0.2501,0.2503,0.2504,0,0,0,0,0,0,0,0.2293,0.2301,0.2373,0.2351,0.2356,0.2397,0.2403,0.2436,0.244,0.2414,0.2415,0.2435,0.2467,0.2487,0.2491,0.2542,0.25,0.2502,0.2504,0.2505,0.2752,0.2756,0,0,0,0,0,0,0.2284,0.2296,0.2369,0.2376,0.2328,0.24,0.2407,0.2408,0.2442,0.2447,0.2436,0.2435,0.2483,0.2487,0.2492,0.2635,0.2503,0.2505,0.2507,0.2747,0.2753,0.2758,0,0,0,0,0,0,0.2281,0.2288,0.2365,0.2343,0.2356,0.2403,0.2404,0.2411,0.2454,0.246,0.2463,0.2475,0.2482,0.2488,0.2574,0.2633,0.2507,0.2509,0.2741,0.2749,0.2755,0.2866,0,0,0,0,0,0,0.2277,0.2286,0.2303,0.2342,0.2357,0.2455,0.2407,0.2414,0.2469,0.2468,0.2495,0.2495,0.2481,0.257,0.2577,0.2634,0.2512,0.2735,0.2745,0.2753,0.2856,0.2876,0.2893,0,0,0,0,0,0.2273,0.2318,0.2303,0.2314,0.2371,0.2459,0.2472,0.2497,0.2472,0.2522,0.2544,0.2495,0.2631,0.2577,0.2583,0.2643,0.2731,0.2742,0.2752,0.2848,0.2872,0.2892,0,0,0,0,0,0,0.2308,0.2324,0.2308,0.2359,0.2415,0.2461,0.2531,0.252,0.2576,0.2581,0.2557,0.2564,0.2663,0.2654,0.2594,0.2748,0.2673,0.2686,0.2744,0.2766,0.2785,0.273,0.2514,0,0,0,0,0,0.2315,0.2333,0.2374,0.2417,0.2464,0.2495,0.2537,0.2546,0.2593,0.2616,0.2627,0.2659,0.2713,0.2738,0.2783,0.2865,0.2865,0.2913,0.2931,0.2946,0.2913,0.2964,0.2982,0.2793,0.2793,0.2793,0,0,0.2324,0.2353,0.2352,0.2424,0.2479,0.256,0.2519,0.2609,0.2651,0.2613,0.2699,0.2728,0.2754,0.2852,0.2894,0.2848,0.3026,0.296,0.2972,0.2929,0.2977,0.2994,0.301,0.2801,0.2799,0.2798,0,0,0.2408,0.2407,0.2474,0.2529,0.2623,0.2639,0.2669,0.2733,0.275,0.2837,0.2823,0.2882,0.2966,0.2982,0.3003,0.3152,0.3126,0.3188,0.3224,0.3277,0.3291,0.3302,0.3417,0.3438,0.3189,0.3189,0.3189,0,0.2444,0.2492,0.2516,0.2624,0.2657,0.2679,0.2758,0.2805,0.2871,0.2878,0.2887,0.2995,0.3019,0.3097,0.3154,0.3185,0.3232,0.313,0.3295,0.3305,0.3315,0.3429,0.345,0.3196,0.3195,0.3194,0.3194,0,0.2566,0.262,0.2689,0.2784,0.2839,0.2914,0.2962,0.3011,0.302,0.3031,0.3115,0.3161,0.3203,0.3248,0.3245,0.3337,0.3362,0.3314,0.322,0.334,0.3456,0.3476,0.3205,0.3203,0.3201,0.3199,0,0,0.2603,0.2736,0.2757,0.2797,0.2904,0.2952,0.3042,0.3093,0.3123,0.3194,0.323,0.333,0.332,0.3343,0.3357,0.3397,0.3551,0.339,0.3389,0.3473,0.373,0.3567,0.3573,0.3532,0.3534,0.3536,0.3814,0,0.2691,0.2846,0.2883,0.2997,0.3072,0.309,0.3154,0.3198,0.3234,0.329,0.3317,0.3386,0.3371,0.3407,0.3449,0.3512,0.3594,0.3482,0.3625,0.3631,0.3441,0.3585,0.3261,0.3461,0.3833,0.3837,0.3839,0,0.2802,0.2867,0.2981,0.3049,0.3084,0.3142,0.3183,0.3248,0.3322,0.3352,0.3406,0.3439,0.3526,0.3493,0.3651,0.3587,0.3669,0.3715,0.3726,0.352,0.3498,0.3388,0.3483,0.3871,0.3869,0.3866,0.3864,0,0.2783,0.2932,0.2984,0.3017,0.3118,0.3142,0.3183,0.3255,0.3304,0.3392,0.3449,0.353,0.3604,0.3685,0.3789,0.3742,0.3963,0.3911,0.3859,0.3854,0.3568,0.3529,0.4031,0.4031,0.403,0.4029,0.4028,0,0.2837,0.2888,0.2976,0.3003,0.305,0.3128,0.3183,0.3237,0.3335,0.3402,0.3476,0.3558,0.3651,0.378,0.3849,0.3922,0.403,0.388,0.3896,0.3611,0.3574,0.3883,0.3862,0.404,0.4037,0.4035,0.4033,0,0.2825,0.2891,0.2954,0.3028,0.3053,0.3084,0.3184,0.3233,0.3334,0.3434,0.3475,0.3628,0.3762,0.3871,0.4034,0.3998,0.4082,0.4092,0.3777,0.3744,0.3942,0.3924,0.4057,0.4053,0.405,0.4047,0.4045,0,0.2831,0.2866,0.2939,0.2965,0.2999,0.3059,0.3103,0.3212,0.3272,0.3468,0.3517,0.3691,0.3754,0.3936,0.3904,0.399,0.4095,0.3739,0.3529,0.3933,0.3937,0.3925,0.3913,0.3281,0.3273,0.3266,0.3261,0,0.2811,0.2837,0.2872,0.2914,0.2962,0.3011,0.3086,0.3132,0.3268,0.3358,0.3502,0.3575,0.3698,0.3574,0.3631,0.3632,0.3669,0.3595,0.413,0.3271,0.3207,0.3209,0.3222,0.32,0.3206,0.321,0.3214,0.3216,0.278,0.2779,0.2817,0.2853,0.2911,0.2939,0.2937,0.3013,0.3078,0.3111,0.3302,0.3264,0.3301,0.315,0.3127,0.3105,0.3335,0.3192,0.3212,0.324,0.3046,0.2972,0.2893,0.2897,0.29,0.2904,0.2906,0,0.27,0.2718,0.2751,0.2776,0.2783,0.2861,0.2905,0.2824,0.2823,0.2852,0.2873,0.2592,0.252,0.261,0.2468,0.2481,0.2455,0.2401,0.2341,0.2403,0.2458,0.2221,0.1853,0.185,0.1847,0.1844,0,0,0.2661,0.2633,0.2636,0.2623,0.2666,0.2624,0.2624,0.2499,0.245,0.2254,0.218,0.2266,0.2449,0.206,0.2054,0.1935,0.2145,0.186,0.2702,0.2688,0.2739,0.2913,0.2617,0,0,0,0,0]},{"header":{"parameterUnit":"m.s-1","parameterCategory":2,"la1":30.2991,"la2":30.254,"lo1":-89.0895,"lo2":-89.0444,"dy":0.0017,"dx":0.0017,"nx":28,"ny":28,"refTime":"2024-04-14T21:00:00:Z","depth":"2","parameterNumber":3,"parameterNumberName":"V-component_of_CURRENTS"},"data":[0,0,0,0,0,0,0,0,0,0,0,0,0,0,0,0,0,0,0,0,0,0,0,0,0,0,0,0,0,0,0,0,0,0,0,0,0,0,0,0,0,0,0,0,0,0,0,0,0,0,0,0,0,0,0,0,0,0,-0.0085,-0.0086,0,-0.0187,-0.0188,-0.0189,-0.0224,-0.0223,-0.0223,-0.0222,-0.0354,-0.0358,-0.0362,0,0,0,0,0,0,0,0,0,0,0,0,0,-0.0078,-0.0077,-0.0085,-0.0086,-0.0087,-0.0186,-0.0188,-0.019,-0.0224,-0.0223,-0.0222,-0.0222,-0.0352,-0.0357,-0.0362,0,0,0,0,0,0,0,0,0,0,0,0,0,-0.0122,-0.0077,-0.0085,-0.0115,-0.0118,-0.0186,-0.0188,-0.019,-0.0224,-0.0223,-0.0222,-0.0221,-0.0351,-0.0357,-0.0363,-0.0419,0,0,-0.0381,-0.0384,0,0,0,0,0,0,0,0,-0.0119,-0.0123,-0.0109,-0.0113,-0.0117,-0.019,-0.0234,-0.0267,-0.0224,-0.0186,-0.0222,-0.0221,-0.0301,-0.0311,-0.0335,-0.0425,-0.0431,-0.0382,-0.0386,-0.0388,-0.039,0,0,0,0,0,0,0,-0.0116,-0.0119,-0.0128,-0.011,-0.0115,-0.0177,-0.0181,-0.0241,-0.025,-0.0189,-0.0192,-0.02,-0.0303,-0.0329,-0.0338,-0.0433,-0.0382,-0.0387,-0.0391,-0.0393,-0.0648,-0.0651,0,0,0,0,0,0,-0.0092,-0.0115,-0.0124,-0.013,-0.0113,-0.0177,-0.0181,-0.0169,-0.0249,-0.0259,-0.02,-0.0201,-0.0319,-0.0331,-0.0343,-0.0425,-0.0388,-0.0394,-0.0397,-0.0645,-0.0649,-0.0652,0,0,0,0,0,0,-0.0091,-0.0091,-0.012,-0.0125,-0.0133,-0.0176,-0.0163,-0.0171,-0.0205,-0.0256,-0.0267,-0.0225,-0.0319,-0.0334,-0.0411,-0.043,-0.0397,-0.0402,-0.0642,-0.0646,-0.0651,-0.0583,0,0,0,0,0,0,-0.009,-0.0089,-0.0082,-0.0122,-0.0131,-0.0161,-0.0164,-0.0174,-0.0209,-0.0211,-0.0281,-0.0292,-0.0319,-0.0402,-0.0417,-0.0438,-0.0407,-0.0638,-0.0644,-0.0649,-0.0582,-0.0585,-0.0588,0,0,0,0,0,-0.0089,-0.0094,-0.0081,-0.0083,-0.0115,-0.0161,-0.0172,-0.0203,-0.0211,-0.0229,-0.0283,-0.029,-0.045,-0.0409,-0.0426,-0.0449,-0.0635,-0.0642,-0.0649,-0.058,-0.0584,-0.0588,0,0,0,0,0,0,-0.0099,-0.0099,-0.0085,-0.009,-0.0116,-0.0166,-0.0207,-0.0211,-0.0269,-0.0292,-0.0322,-0.0337,-0.0412,-0.0459,-0.0412,-0.055,-0.0548,-0.0559,-0.0491,-0.0495,-0.0498,-0.0426,-0.0412,0,0,0,0,0,-0.009,-0.0085,-0.01,-0.0105,-0.0131,-0.0167,-0.0194,-0.0214,-0.0265,-0.029,-0.0326,-0.0396,-0.0457,-0.0494,-0.0558,-0.0632,-0.0615,-0.0668,-0.0671,-0.0673,-0.0633,-0.0634,-0.063,-0.0675,-0.0675,-0.0675,0,0,-0.0089,-0.0095,-0.0087,-0.0106,-0.0147,-0.0176,-0.0184,-0.0244,-0.0257,-0.0299,-0.0351,-0.0406,-0.0482,-0.0555,-0.0595,-0.0592,-0.0658,-0.0682,-0.0681,-0.064,-0.064,-0.0635,-0.063,-0.068,-0.0679,-0.0678,0,0,-0.0111,-0.0105,-0.0119,-0.0142,-0.0195,-0.0213,-0.0225,-0.0278,-0.0298,-0.0356,-0.0388,-0.0441,-0.055,-0.0579,-0.0616,-0.0685,-0.0671,-0.0736,-0.0688,-0.069,-0.0684,-0.0678,-0.0647,-0.0638,-0.0739,-0.0738,-0.0738,0,-0.0118,-0.011,-0.0135,-0.017,-0.0178,-0.0223,-0.0241,-0.0282,-0.0339,-0.0341,-0.0375,-0.0482,-0.0551,-0.0591,-0.062,-0.0681,-0.067,-0.0652,-0.0683,-0.0678,-0.0672,-0.0642,-0.0634,-0.0736,-0.0736,-0.0737,-0.0737,0,-0.014,-0.0144,-0.0176,-0.0198,-0.0219,-0.0255,-0.0291,-0.0317,-0.0345,-0.0358,-0.0405,-0.0485,-0.0524,-0.0583,-0.0624,-0.0634,-0.0632,-0.0675,-0.0645,-0.0662,-0.0632,-0.0624,-0.0733,-0.0733,-0.0734,-0.0735,0,0,-0.0127,-0.0171,-0.0179,-0.017,-0.0228,-0.0237,-0.0277,-0.0286,-0.027,-0.0348,-0.0312,-0.044,-0.0447,-0.0489,-0.0544,-0.056,-0.0532,-0.0598,-0.0599,-0.0514,-0.0502,-0.0549,-0.0544,-0.0572,-0.0571,-0.057,-0.0491,0,-0.0131,-0.0152,-0.0176,-0.0181,-0.019,-0.0221,-0.0225,-0.0245,-0.0266,-0.0252,-0.0323,-0.0332,-0.0425,-0.0426,-0.046,-0.0509,-0.051,-0.0547,-0.0544,-0.0542,-0.0538,-0.0537,-0.0503,-0.0435,-0.0483,-0.0482,-0.0481,0,-0.0131,-0.0136,-0.0131,-0.0118,-0.0126,-0.0124,-0.0092,-0.0105,-0.0117,-0.0129,-0.0149,-0.0189,-0.0216,-0.0296,-0.035,-0.0367,-0.0417,-0.0462,-0.0461,-0.051,-0.0574,-0.0436,-0.0418,-0.0468,-0.0469,-0.047,-0.047,0,-0.0063,-0.0095,-0.0063,-0.0067,-0.0076,-0.0056,-0.005,-0.0055,-0.003,-0.0021,0.0018,-0.0045,-0.0039,-0.0123,-0.0241,-0.0281,-0.0286,-0.0356,-0.0434,-0.0436,-0.0407,-0.0411,-0.0367,-0.0367,-0.0368,-0.0368,-0.0368,0,-0.0029,-0.0007,-0.002,-0.0001,0.0054,0.0024,0.0093,0.0086,0.0116,0.0174,0.0109,0.015,0.0004,-0.0035,-0.0161,-0.0263,-0.0224,-0.0393,-0.0417,-0.0391,-0.0394,-0.0432,-0.0441,-0.0365,-0.0366,-0.0366,-0.0367,0,0.004,0.0028,0.0064,0.0075,0.0088,0.0134,0.0186,0.0236,0.0258,0.0343,0.0363,0.0325,0.0266,0.0126,0.0005,-0.014,-0.0248,-0.0292,-0.0239,-0.0261,-0.0407,-0.0414,-0.0351,-0.0352,-0.0352,-0.0353,-0.0354,0,0.008,0.0101,0.0133,0.0166,0.0176,0.0236,0.0283,0.0307,0.0365,0.0444,0.0497,0.0482,0.0488,0.0303,0.0043,-0.014,-0.0205,-0.0254,-0.035,-0.0373,-0.0404,-0.041,-0.0415,-0.0273,-0.0273,-0.0273,-0.0273,0,0.0144,0.0151,0.0176,0.0231,0.0287,0.0361,0.0429,0.0498,0.0544,0.0659,0.0757,0.0786,0.0603,0.041,0.0123,-0.0034,-0.0235,-0.0262,-0.0266,-0.0312,-0.0303,-0.0333,-0.034,-0.0272,-0.0272,-0.0272,-0.0272,-0.0272,0.0185,0.0204,0.0214,0.0274,0.0347,0.0438,0.0516,0.0636,0.0771,0.0946,0.0935,0.1017,0.0756,0.0406,0.0125,-0.0205,-0.0211,-0.0326,-0.0324,-0.0323,-0.0358,-0.0355,-0.0335,-0.0336,-0.0336,-0.0337,-0.0337,0,0.0187,0.0191,0.025,0.0304,0.0396,0.0429,0.0571,0.0719,0.0921,0.1089,0.1228,0.1025,0.0813,0.0497,0.0023,-0.0258,-0.0283,-0.0355,-0.0316,-0.0315,-0.0314,-0.0348,-0.0323,-0.0324,-0.0325,-0.0325,0,0,0.0177,0.0191,0.0208,0.0309,0.0376,0.0507,0.06,0.089,0.1068,0.1286,0.1335,0.1355,0.0948,0.061,0.0226,-0.0042,-0.0114,-0.0102,-0.0081,0.0013,0.0017,-0.0267,-0.0315,0,0,0,0,0]}],[{"header":{"parameterUnit":"m.s-1","parameterCategory":2,"la1":30.2991,"la2":30.254,"lo1":-89.0895,"lo2":-89.0444,"dy":0.0017,"dx":0.0017,"nx":28,"ny":28,"refTime":"2024-04-14T21:00:00:Z","depth":"4","parameterNumber":2,"parameterNumberName":"U-component_of_CURRENTS"},"data":[0,0,0,0,0,0,0,0,0,0,0,0,0,0,0,0,0,0,0,0,0,0,0,0,0,0,0,0,0,0,0,0,0,0,0,0,0,0,0,0,0,0,0,0,0,0,0,0,0,0,0,0,0,0,0,0,0,0,0.1054,0.1054,0,0.1076,0.1076,0.1076,0.1145,0.1147,0.1149,0.115,0.1163,0.1162,0.1161,0,0,0,0,0,0,0,0,0,0,0,0,0,0.1032,0.1032,0.1054,0.1054,0.1055,0.1076,0.1076,0.1076,0.1145,0.1147,0.1149,0.1151,0.1163,0.1162,0.116,0,0,0,0,0,0,0,0,0,0,0,0,0,0.1045,0.1032,0.1054,0.1093,0.1097,0.1076,0.1076,0.1076,0.1145,0.1147,0.115,0.1152,0.1164,0.1162,0.116,0.1099,0,0,0.1155,0.1154,0,0,0,0,0,0,0,0,0.1044,0.1046,0.1087,0.109,0.1094,0.1112,0.1073,0.1084,0.1144,0.1125,0.115,0.1153,0.1144,0.1144,0.1141,0.11,0.11,0.1155,0.1153,0.1153,0.1152,0,0,0,0,0,0,0,0.1044,0.1045,0.1061,0.1087,0.1092,0.1096,0.11,0.1075,0.1119,0.1127,0.1132,0.1136,0.1146,0.1142,0.1141,0.1101,0.1155,0.1153,0.1152,0.1151,0.1209,0.1212,0,0,0,0,0,0,0.1043,0.1044,0.1061,0.1062,0.1077,0.1094,0.11,0.1102,0.112,0.1125,0.1134,0.1139,0.1144,0.1144,0.1142,0.1197,0.1153,0.1151,0.115,0.1207,0.121,0.1213,0,0,0,0,0,0,0.1042,0.1044,0.106,0.1055,0.1058,0.1092,0.1095,0.1102,0.1135,0.1125,0.1131,0.1165,0.1146,0.1145,0.1153,0.1194,0.115,0.1148,0.1203,0.1208,0.1211,0.1226,0,0,0,0,0,0,0.1041,0.1043,0.1048,0.1055,0.1058,0.1049,0.1093,0.11,0.1132,0.114,0.1152,0.1155,0.1148,0.1156,0.1151,0.1191,0.1147,0.12,0.1205,0.121,0.1223,0.123,0.1237,0,0,0,0,0,0.104,0.102,0.1048,0.1051,0.1062,0.1048,0.1049,0.1082,0.1131,0.1126,0.1159,0.1156,0.1187,0.1154,0.1149,0.1189,0.1198,0.1204,0.121,0.1219,0.1229,0.1237,0,0,0,0,0,0,0.1006,0.1025,0.1057,0.1044,0.1054,0.1061,0.1059,0.1095,0.1116,0.1139,0.1152,0.1154,0.1179,0.1186,0.1152,0.123,0.1206,0.1211,0.1216,0.1225,0.1232,0.1304,0.1146,0,0,0,0,0,0.1003,0.1005,0.1019,0.1016,0.1019,0.1051,0.1057,0.1082,0.11,0.1115,0.1131,0.1168,0.1191,0.121,0.1209,0.123,0.1249,0.127,0.1277,0.1283,0.1344,0.1388,0.1404,0.1232,0.1232,0.1232,0,0,0.0997,0.1003,0.101,0.1011,0.1025,0.1033,0.1061,0.1068,0.1106,0.1107,0.1158,0.1166,0.1198,0.1227,0.1245,0.1245,0.1333,0.129,0.1294,0.1354,0.1396,0.1412,0.1427,0.1236,0.1235,0.1235,0,0,0.0957,0.0985,0.0968,0.0978,0.0996,0.1021,0.1034,0.1057,0.11,0.1138,0.1164,0.1215,0.1235,0.1278,0.1305,0.1358,0.1351,0.1362,0.147,0.1509,0.1523,0.1536,0.153,0.1542,0.1386,0.1386,0.1386,0,0.0943,0.0945,0.0958,0.0947,0.0979,0.1026,0.1038,0.1072,0.1106,0.115,0.1166,0.1271,0.1279,0.1364,0.1408,0.1376,0.1384,0.1418,0.1516,0.153,0.1543,0.1534,0.1548,0.1388,0.1388,0.1387,0.1387,0,0.0901,0.0914,0.0904,0.0932,0.0955,0.0971,0.1029,0.1056,0.1136,0.1197,0.1295,0.1331,0.1417,0.1425,0.1445,0.1554,0.152,0.1492,0.1484,0.1561,0.1546,0.156,0.139,0.1389,0.1389,0.1389,0,0,0.0834,0.0872,0.0872,0.0908,0.0966,0.098,0.1038,0.1116,0.118,0.1265,0.1378,0.1469,0.1532,0.1574,0.1596,0.1668,0.1743,0.1651,0.1652,0.163,0.1807,0.1724,0.173,0.1725,0.1729,0.1732,0.1739,0,0.0807,0.0818,0.0844,0.089,0.092,0.0984,0.1043,0.1124,0.1211,0.1314,0.1441,0.155,0.1577,0.164,0.1717,0.1749,0.1792,0.1744,0.1755,0.1756,0.1661,0.175,0.1744,0.1749,0.1752,0.1754,0.1756,0,0.0757,0.0789,0.0832,0.0917,0.0934,0.0978,0.1098,0.1146,0.129,0.137,0.1518,0.1613,0.1788,0.1777,0.1912,0.188,0.1872,0.1881,0.1879,0.1829,0.1703,0.1675,0.1781,0.1779,0.1777,0.1776,0.1774,0,0.0736,0.0777,0.0837,0.0866,0.0957,0.1003,0.1069,0.1184,0.1255,0.1435,0.1543,0.1711,0.1846,0.19,0.1986,0.195,0.2095,0.2013,0.1914,0.1904,0.1962,0.1949,0.2081,0.2081,0.2081,0.2081,0.2081,0,0.0703,0.0736,0.0841,0.0873,0.0946,0.1021,0.1111,0.1174,0.1323,0.1431,0.1606,0.1731,0.1898,0.2008,0.2018,0.2046,0.2114,0.1979,0.1931,0.1959,0.1947,0.1967,0.1954,0.2081,0.2081,0.2081,0.2081,0,0.0641,0.0709,0.0767,0.089,0.0933,0.0987,0.1129,0.1185,0.1345,0.1492,0.1583,0.1801,0.1945,0.2057,0.214,0.2089,0.2103,0.2066,0.2107,0.2051,0.1857,0.1845,0.1947,0.1944,0.1943,0.1941,0.194,0,0.0609,0.0635,0.0769,0.0799,0.0855,0.0957,0.1021,0.118,0.1238,0.151,0.1571,0.1811,0.1937,0.1996,0.2097,0.2111,0.2075,0.2046,0.1968,0.1916,0.1859,0.1849,0.184,0.1937,0.1936,0.1936,0.1935,0,0.0529,0.0585,0.0638,0.0717,0.0793,0.0866,0.0974,0.1031,0.1216,0.1398,0.1541,0.1675,0.1831,0.1919,0.1978,0.1968,0.2064,0.2026,0.2027,0.1953,0.1905,0.1848,0.184,0.1929,0.193,0.1931,0.1931,0,0.0462,0.0481,0.0554,0.0611,0.068,0.0739,0.0832,0.0932,0.1037,0.1329,0.1362,0.1615,0.1786,0.1844,0.1888,0.1916,0.186,0.1765,0.1779,0.1787,0.1747,0.1663,0.1613,0,0,0,0,0,0.0389,0.0399,0.0437,0.0499,0.0556,0.0613,0.076,0.086,0.1074,0.1124,0.1239,0.1373,0.1535,0.1645,0.1641,0.1814,0.1857,0.18,0.175,0.1894,0.1901,0.1876,0,0,0,0,0,0,0.0339,0.0361,0.04,0.0376,0.0397,0.0473,0.0575,0.0739,0.0758,0.0985,0.1064,0.1251,0.1404,0.1502,0.1595,0.1631,0.1565,0.1937,0.1933,0.1889,0.1896,0.1902,0.1879,0,0,0,0,0]},{"header":{"parameterUnit":"m.s-1","parameterCategory":2,"la1":30.2991,"la2":30.254,"lo1":-89.0895,"lo2":-89.0444,"dy":0.0017,"dx":0.0017,"nx":28,"ny":28,"refTime":"2024-04-14T21:00:00:Z","depth":"4","parameterNumber":3,"parameterNumberName":"V-component_of_CURRENTS"},"data":[0,0,0,0,0,0,0,0,0,0,0,0,0,0,0,0,0,0,0,0,0,0,0,0,0,0,0,0,0,0,0,0,0,0,0,0,0,0,0,0,0,0,0,0,0,0,0,0,0,0,0,0,0,0,0,0,0,0,0.0181,0.0181,0,0.0182,0.0182,0.0182,0.0144,0.0143,0.0142,0.0142,0.013,0.013,0.0131,0,0,0,0,0,0,0,0,0,0,0,0,0,0.012,0.0122,0.0181,0.0181,0.0181,0.0182,0.0182,0.0182,0.0144,0.0143,0.0142,0.0141,0.013,0.013,0.0131,0,0,0,0,0,0,0,0,0,0,0,0,0,0.0136,0.0122,0.0181,0.0163,0.0161,0.0182,0.0182,0.0182,0.0145,0.0143,0.0142,0.0141,0.0129,0.013,0.0131,0.0165,0,0,0.0134,0.0134,0,0,0,0,0,0,0,0,0.0135,0.0138,0.0166,0.0164,0.0163,0.0162,0.0156,0.0176,0.0145,0.0151,0.0141,0.014,0.0141,0.0141,0.0143,0.0164,0.0164,0.0134,0.0134,0.0135,0.0135,0,0,0,0,0,0,0,0.0134,0.0138,0.0181,0.0166,0.0164,0.0146,0.0146,0.0159,0.0153,0.015,0.0147,0.0149,0.014,0.0143,0.0143,0.0164,0.0134,0.0135,0.0135,0.0135,0.0225,0.0227,0,0,0,0,0,0,0.0139,0.0137,0.0181,0.0181,0.0146,0.0148,0.0149,0.0163,0.0153,0.015,0.015,0.0147,0.0142,0.0142,0.0142,0.0193,0.0135,0.0135,0.0136,0.0223,0.0225,0.0227,0,0,0,0,0,0,0.0137,0.0143,0.0181,0.0158,0.0162,0.0151,0.0167,0.0164,0.0173,0.0153,0.015,0.0162,0.0141,0.0141,0.0177,0.0192,0.0136,0.0137,0.0221,0.0224,0.0226,0.0288,0,0,0,0,0,0,0.0136,0.0143,0.0164,0.0159,0.0163,0.0216,0.0168,0.0165,0.0175,0.0172,0.0163,0.016,0.014,0.0176,0.0178,0.0192,0.0137,0.0219,0.0222,0.0226,0.0283,0.0292,0.03,0,0,0,0,0,0.0134,0.0174,0.0166,0.0171,0.019,0.0218,0.022,0.0205,0.0178,0.0203,0.0195,0.016,0.0198,0.0179,0.0181,0.0195,0.0217,0.0221,0.0225,0.028,0.029,0.03,0,0,0,0,0,0,0.0162,0.0174,0.0164,0.0206,0.0219,0.0212,0.0238,0.0218,0.0231,0.0227,0.0195,0.0194,0.0226,0.0215,0.0194,0.0233,0.0198,0.0203,0.0239,0.0249,0.0257,0.0252,0.0138,0,0,0,0,0,0.0179,0.0209,0.0214,0.0249,0.0262,0.025,0.026,0.025,0.0254,0.0257,0.0247,0.0241,0.0246,0.0251,0.0258,0.0291,0.0236,0.0299,0.0307,0.0314,0.0313,0.0241,0.0241,0.0241,0.0241,0.0241,0,0,0.0194,0.0209,0.0223,0.0257,0.0266,0.0297,0.0254,0.0283,0.0301,0.0257,0.0289,0.0277,0.0264,0.0294,0.0306,0.0285,0.0289,0.032,0.0325,0.032,0.0245,0.0244,0.0243,0.0244,0.0244,0.0243,0,0,0.0249,0.0263,0.0307,0.0327,0.0352,0.0347,0.0359,0.0363,0.0362,0.0395,0.0358,0.0357,0.0378,0.0358,0.0352,0.0415,0.0338,0.042,0.0454,0.0384,0.0382,0.038,0.0317,0.0308,0.0421,0.0421,0.0421,0,0.0275,0.0319,0.0325,0.0375,0.039,0.0372,0.0413,0.0421,0.0432,0.0425,0.0419,0.0414,0.0402,0.0406,0.0427,0.0429,0.0379,0.0413,0.039,0.0387,0.0383,0.0319,0.0309,0.0424,0.0424,0.0423,0.0423,0,0.0356,0.039,0.0424,0.0471,0.0494,0.0531,0.0535,0.0547,0.0533,0.052,0.0528,0.0513,0.0498,0.0497,0.0484,0.0462,0.0432,0.0407,0.0356,0.0386,0.0318,0.0306,0.0429,0.0428,0.0427,0.0426,0,0,0.0416,0.0468,0.048,0.05,0.0542,0.0565,0.0599,0.0608,0.0607,0.0614,0.0609,0.0611,0.0578,0.057,0.0543,0.0489,0.0426,0.0446,0.0441,0.0368,0.027,0.025,0.0234,0.0389,0.0387,0.0386,0.0233,0,0.0476,0.056,0.0571,0.0635,0.067,0.066,0.0691,0.0694,0.0679,0.0677,0.0641,0.0643,0.0616,0.0608,0.0552,0.0452,0.0397,0.0469,0.0265,0.0259,0.0224,0.0221,0.038,0.0224,0.0221,0.0219,0.0217,0,0.0552,0.0589,0.0662,0.0691,0.0708,0.0751,0.0759,0.078,0.0763,0.0751,0.0728,0.0697,0.0642,0.0616,0.0448,0.0493,0.0396,0.0314,0.0305,0.0254,0.0217,0.0187,0.0195,0.0196,0.0198,0.02,0.0201,0,0.0578,0.0648,0.0697,0.0717,0.0759,0.0788,0.081,0.0807,0.0818,0.08,0.0793,0.072,0.0681,0.0552,0.0394,0.0414,0.0189,0.0188,0.008,0.0077,0.011,0.0114,0.0069,0.0069,0.0069,0.007,0.007,0,0.0626,0.0666,0.072,0.0752,0.0806,0.083,0.088,0.0875,0.0884,0.0889,0.0843,0.0815,0.0659,0.0521,0.0387,0.0185,0.0174,0.0078,0.0032,0.0144,0.0153,0.0101,0.0107,0.0064,0.0065,0.0066,0.0067,0,0.064,0.0678,0.0738,0.0799,0.0825,0.0868,0.0941,0.0964,0.0964,0.0966,0.0967,0.0861,0.0678,0.0505,0.0267,0.0167,-0.0017,-0.0082,0.0045,0.001,-0.0076,-0.0064,-0.0211,-0.0213,-0.0215,-0.0216,-0.0217,0,0.0651,0.0686,0.0773,0.0815,0.0854,0.0927,0.0977,0.1007,0.1025,0.0984,0.0976,0.0826,0.0735,0.0378,0.0201,-0.007,-0.0094,-0.0186,-0.0113,-0.0077,-0.0107,-0.0093,-0.0079,-0.022,-0.0221,-0.0221,-0.0222,0,0.066,0.0703,0.0748,0.0838,0.0911,0.0978,0.1049,0.1062,0.1074,0.1076,0.0963,0.0808,0.0597,0.0357,0.0137,-0.0046,-0.0124,-0.0204,-0.02,-0.0132,-0.009,-0.0115,-0.01,-0.0228,-0.0227,-0.0226,-0.0226,0,0.0666,0.0703,0.0777,0.0849,0.0937,0.1002,0.1041,0.1054,0.1065,0.1016,0.0967,0.0771,0.0654,0.0367,0.0164,-0.0024,-0.0047,-0.0084,-0.0087,-0.0083,0.0011,0.0087,-0.0045,0,0,0,0,0,0.0658,0.0707,0.0781,0.0866,0.0952,0.1004,0.107,0.1096,0.1102,0.1022,0.0997,0.0806,0.0511,0.0382,0.0189,0.0145,-0.0074,-0.0085,-0.0117,-0.0261,-0.0254,-0.0167,0,0,0,0,0,0,0.0662,0.0729,0.0774,0.0865,0.0922,0.1016,0.1058,0.1064,0.1015,0.0991,0.0827,0.0767,0.0471,0.0614,0.0185,0.0131,0.0087,-0.0217,-0.0221,-0.0265,-0.0259,-0.0253,-0.0161,0,0,0,0,0]}]]